User: anonymous   Login
Location: Bittkow
(50.3000°N, 19.0000°E)
Time: 17:42:28
(UTC+00:00)
Language:

Nadezhda 3 Rocket - Orbit

View from above orbital plane
View from above orbital plane
View from above satellite
View from above satellite

Ground track
Ground track

The orbit data is extracted from the following two-line orbital elements,

1 21153U 91019B   20330.79181613 +.00000128 +00000-0 +11634-3 0  9995
2 21153 082.9246 346.9716 0028020 235.0470 298.4932 13.75962436491337
Epoch (UTC): 25 November 2020 19:00:12
Eccentricity: 0.0028020
inclination: 82.9246°
perigee height: 957 km
apogee height: 999 km
right ascension of ascending node: 346.9716°
argument of perigee: 235.0470°
revolutions per day: 13.75962436
mean anomaly at epoch: 298.4932°
orbit number at epoch: 49133

The dashed part of the orbit path shows where the satellite is in the earth's shadow,  

DLR